When you browse on this site, cookies collect data to enhance your experience and personalize the content and advertising you see.
Visit our Privacy Policy to learn more. By continuing to use the site, you agree to this use of cookies and data.
  • In United Kingdom
  • List of Countries
  • For 7 days
  • Water Temperature
  • Weather Map
  • Weather Widgets
  • user-avatar
    Login

    Hourly Weather Tegucigalpa

    Today, 25 August, Sunday

    Time Temperature Precipitation Wind Pressure Humidity
    00:00 +21°C° 0 mm 1 mps 673 mmHg 93%
    01:00 +20°C° 0 mm 1 mps 673 mmHg 94%
    02:00 +20°C° 0 mm 1 mps 672 mmHg 95%
    03:00 +20°C° 0 mm 1 mps 672 mmHg 96%
    04:00 +20°C° 0 mm 1 mps 672 mmHg 96%
    05:00 +19°C° 0 mm 1 mps 672 mmHg 96%
    06:00 +19°C° 0 mm 1 mps 672 mmHg 97%
    07:00 +22°C° 0 mm 1 mps 673 mmHg 84%
    08:00 +24°C° 0 mm 1 mps 674 mmHg 71%
    09:00 +27°C° 0 mm 1 mps 675 mmHg 59%
    10:00 +28°C° 0 mm 2 mps 675 mmHg 53%
    11:00 +29°C° 0 mm 2 mps 675 mmHg 47%
    12:00 +31°C° 0 mm 2 mps 674 mmHg 41%
    13:00 +31°C° 0 mm 2 mps 674 mmHg 42%
    14:00 +31°C° 0 mm 2 mps 673 mmHg 42%
    15:00 +31°C° 0 mm 2 mps 673 mmHg 43%
    16:00 +29°C° 0.9 mm 2 mps 673 mmHg 55%
    17:00 +27°C° 0.9 mm 1 mps 672 mmHg 67%
    18:00 +24°C° 0.9 mm 1 mps 672 mmHg 79%
    19:00 +24°C° 2.5 mm 1 mps 673 mmHg 84%
    20:00 +23°C° 2.5 mm 1 mps 673 mmHg 90%
    21:00 +22°C° 2.5 mm 1 mps 674 mmHg 96%
    22:00 +22°C° 0.2 mm 1 mps 673 mmHg 95%
    23:00 +21°C° 0.2 mm 1 mps 673 mmHg 95%

    Tomorrow, 26 August, Monday

    Time Temperature Precipitation Wind Pressure Humidity
    00:00 +21°C° 0.2 mm 1 mps 673 mmHg 94%
    01:00 +21°C° 0 mm 1 mps 673 mmHg 95%
    02:00 +20°C° 0 mm 1 mps 672 mmHg 96%
    03:00 +20°C° 0 mm 1 mps 672 mmHg 96%
    04:00 +20°C° 0 mm 1 mps 672 mmHg 96%
    05:00 +20°C° 0 mm 1 mps 672 mmHg 96%
    06:00 +20°C° 0 mm 1 mps 672 mmHg 96%
    07:00 +22°C° 0 mm 1 mps 673 mmHg 87%
    08:00 +24°C° 0 mm 1 mps 674 mmHg 78%
    09:00 +26°C° 0 mm 1 mps 674 mmHg 68%
    10:00 +28°C° 0 mm 2 mps 674 mmHg 61%
    11:00 +29°C° 0 mm 2 mps 674 mmHg 54%
    12:00 +31°C° 0 mm 2 mps 674 mmHg 47%
    13:00 +31°C° 0 mm 2 mps 673 mmHg 46%
    14:00 +31°C° 0 mm 2 mps 673 mmHg 46%
    15:00 +31°C° 0 mm 2 mps 672 mmHg 46%
    16:00 +29°C° 0 mm 2 mps 672 mmHg 54%
    17:00 +27°C° 0 mm 1 mps 672 mmHg 63%
    18:00 +25°C° 0 mm 1 mps 672 mmHg 72%
    19:00 +24°C° 0 mm 1 mps 672 mmHg 76%
    20:00 +23°C° 0 mm 1 mps 673 mmHg 81%
    21:00 +22°C° 0 mm 1 mps 673 mmHg 85%
    22:00 +21°C° 0 mm 1 mps 673 mmHg 88%
    23:00 +21°C° 0 mm 1 mps 673 mmHg 91%

    Day after tomorrow, 27 August, Tuesday

    Time Temperature Precipitation Wind Pressure Humidity
    00:00 +20°C° 0 mm 1 mps 672 mmHg 94%
    01:00 +20°C° 0 mm 1 mps 672 mmHg 95%
    02:00 +20°C° 0 mm 1 mps 672 mmHg 96%
    03:00 +19°C° 0 mm 1 mps 672 mmHg 97%
    04:00 +20°C° 0 mm 1 mps 672 mmHg 97%
    05:00 +20°C° 0 mm 1 mps 672 mmHg 97%
    06:00 +19°C° 0 mm 2 mps 672 mmHg 96%
    07:00 +21°C° 0 mm 2 mps 673 mmHg 87%
    08:00 +24°C° 0 mm 2 mps 673 mmHg 79%
    09:00 +26°C° 0 mm 2 mps 674 mmHg 70%
    10:00 +27°C° 0 mm 2 mps 674 mmHg 64%
    11:00 +29°C° 0 mm 2 mps 674 mmHg 59%
    12:00 +30°C° 0 mm 3 mps 674 mmHg 54%
    13:00 +30°C° 0.1 mm 3 mps 673 mmHg 54%
    14:00 +30°C° 0.1 mm 3 mps 673 mmHg 55%
    15:00 +30°C° 0.1 mm 3 mps 672 mmHg 55%
    16:00 +27°C° 0.7 mm 2 mps 672 mmHg 66%
    17:00 +25°C° 0.7 mm 2 mps 672 mmHg 76%
    18:00 +23°C° 0.7 mm 1 mps 672 mmHg 86%
    19:00 +22°C° 0 mm 1 mps 672 mmHg 89%
    20:00 +21°C° 0 mm 1 mps 673 mmHg 91%
    21:00 +20°C° 0 mm 1 mps 673 mmHg 93%
    22:00 +20°C° 0 mm 1 mps 673 mmHg 94%
    23:00 +20°C° 0 mm 1 mps 673 mmHg 95%

    28 August, Wednesday

    Time Temperature Precipitation Wind Pressure Humidity
    00:00 +20°C° 0 mm 1 mps 673 mmHg 96%
    01:00 +20°C° 0 mm 1 mps 673 mmHg 96%
    02:00 +20°C° 0 mm 1 mps 672 mmHg 97%
    03:00 +19°C° 0 mm 2 mps 672 mmHg 97%
    04:00 +19°C° 0 mm 2 mps 673 mmHg 97%
    05:00 +19°C° 0 mm 2 mps 673 mmHg 97%
    06:00 +19°C° 0 mm 2 mps 673 mmHg 97%
    07:00 +20°C° 0 mm 2 mps 674 mmHg 90%
    08:00 +23°C° 0 mm 2 mps 674 mmHg 82%
    09:00 +25°C° 0 mm 2 mps 675 mmHg 75%
    10:00 +26°C° 0 mm 3 mps 675 mmHg 65%
    11:00 +28°C° 0 mm 3 mps 675 mmHg 56%
    12:00 +30°C° 0 mm 4 mps 675 mmHg 46%
    13:00 +28°C° 0 mm 3 mps 674 mmHg 51%
    14:00 +27°C° 0 mm 3 mps 673 mmHg 56%
    15:00 +26°C° 0 mm 2 mps 673 mmHg 62%
    16:00 +25°C° 0 mm 2 mps 673 mmHg 64%
    17:00 +24°C° 0 mm 2 mps 673 mmHg 67%
    18:00 +23°C° 0 mm 2 mps 673 mmHg 70%
    19:00 +21°C° 0 mm 2 mps 673 mmHg 70%
    20:00 +22°C° 0 mm 1 mps 673 mmHg 71%
    21:00 +21°C° 0 mm 1 mps 674 mmHg 71%
    22:00 +21°C° 0 mm 1 mps 674 mmHg 72%
    23:00 +20°C° 0 mm 1 mps 674 mmHg 74%

    29 August, Thursday

    Time Temperature Precipitation Wind Pressure Humidity
    00:00 +20°C° 0 mm 1 mps 674 mmHg 75%
    01:00 +20°C° 0 mm 1 mps 673 mmHg 77%
    02:00 +20°C° 0 mm 1 mps 673 mmHg 79%
    03:00 +20°C° 0 mm 1 mps 673 mmHg 81%
    04:00 +20°C° 0 mm 1 mps 673 mmHg 82%
    05:00 +20°C° 0 mm 1 mps 673 mmHg 83%
    06:00 +20°C° 0 mm 1 mps 673 mmHg 85%
    07:00 +20°C° 0 mm 2 mps 674 mmHg 77%
    08:00 +23°C° 0 mm 2 mps 674 mmHg 70%
    09:00 +25°C° 0 mm 2 mps 675 mmHg 63%
    10:00 +27°C° 0 mm 2 mps 675 mmHg 56%
    11:00 +28°C° 0 mm 3 mps 675 mmHg 50%
    12:00 +30°C° 0 mm 3 mps 675 mmHg 44%
    13:00 +30°C° 0 mm 3 mps 674 mmHg 44%
    14:00 +30°C° 0 mm 3 mps 673 mmHg 44%
    15:00 +30°C° 0 mm 2 mps 673 mmHg 44%
    16:00 +28°C° 0.1 mm 2 mps 673 mmHg 52%
    17:00 +26°C° 0.1 mm 1 mps 673 mmHg 61%
    18:00 +24°C° 0.1 mm 1 mps 673 mmHg 70%
    19:00 +23°C° 0.1 mm 1 mps 673 mmHg 71%
    20:00 +23°C° 0.1 mm 1 mps 673 mmHg 73%
    21:00 +22°C° 0.1 mm 1 mps 674 mmHg 75%
    22:00 +22°C° 0 mm 1 mps 674 mmHg 77%
    23:00 +21°C° 0 mm 1 mps 673 mmHg 80%

    30 August, Friday

    Time Temperature Precipitation Wind Pressure Humidity
    00:00 +20°C° 0 mm 1 mps 673 mmHg 83%
    01:00 +20°C° 0 mm 1 mps 673 mmHg 85%
    02:00 +20°C° 0 mm 1 mps 672 mmHg 87%
    03:00 +19°C° 0 mm 1 mps 672 mmHg 89%
    04:00 +19°C° 0 mm 1 mps 672 mmHg 90%
    05:00 +19°C° 0 mm 1 mps 672 mmHg 90%
    06:00 +19°C° 0 mm 1 mps 672 mmHg 91%
    07:00 +22°C° 0 mm 1 mps 673 mmHg 81%
    08:00 +24°C° 0 mm 1 mps 674 mmHg 71%
    09:00 +27°C° 0 mm 1 mps 675 mmHg 61%
    10:00 +28°C° 0 mm 1 mps 675 mmHg 54%
    11:00 +30°C° 0 mm 1 mps 675 mmHg 48%
    12:00 +31°C° 0 mm 2 mps 674 mmHg 41%
    13:00 +31°C° 0.1 mm 1 mps 674 mmHg 44%
    14:00 +30°C° 0.1 mm 1 mps 673 mmHg 48%
    15:00 +29°C° 0.1 mm 1 mps 672 mmHg 52%
    16:00 +28°C° 0.3 mm 1 mps 672 mmHg 59%
    17:00 +26°C° 0.3 mm 1 mps 672 mmHg 66%
    18:00 +22°C° 0.3 mm 0 mps 672 mmHg 73%
    19:00 +22°C° 0.4 mm 0 mps 673 mmHg 76%
    20:00 +21°C° 0.4 mm 0 mps 673 mmHg 79%
    21:00 +20°C° 0.4 mm 0 mps 673 mmHg 82%
    22:00 +20°C° 0.2 mm 0 mps 673 mmHg 83%
    23:00 +20°C° 0.2 mm 0 mps 673 mmHg 85%
    Show more